Location: Emporia
(38.4040°N, 96.1810°W)
Time: 08:19:25
(UTC-06:00)

ISS - Visible Passes

Search period start: 07 December 2016 00:00
Search period end: 17 December 2016 00:00
Orbit: 401 x 410 km, 51.6° (Epoch: 07 December)

Date Brightness Start Highest point End Pass type
(mag) Time Alt. Az. Time Alt. Az. Time Alt. Az.
07 Dec -0.7 18:04:37 10° NW 18:05:53 12° NNW 18:07:09 10° N visible
12 Dec -0.7 18:35:50 10° N 18:36:08 11° N 18:36:08 11° N visible
14 Dec -1.3 18:27:31 10° NNW 18:29:14 17° N 18:29:14 17° N visible
15 Dec -1.1 17:35:53 10° NNW 17:37:30 13° NNE 17:39:07 10° NE visible
15 Dec -0.9 19:11:19 10° NW 19:12:19 18° NW 19:12:19 18° NW visible
16 Dec -2.5 18:19:24 10° NNW 18:22:24 31° NNE 18:22:52 30° NE visible
